Date String (YYYY-MM-DD hh:mm:ss) UTC,Instrument flags,Ambient pressure (hPa),Sample flow (lpm),Bypass flow (lpm),Sample temperature (°C),Ambient temperature (°C),ASC tube jacket temperature (°C),LED temperature (°C),Box temperature (°C),Sample RH (%),Span deviation,Mass concentration (μg/m³),Mass concentration (μg/m³),Mass concentration (μg/m³)
DateTimeUTC,F1_M11,P_M11,Q1_M11,Q2_M11,T1_M11,T2_M11,T3_M11,T4_M11,T5_M11,U1_M11,ZSPAN_M11,X0_M11,X2_M11,X1_M11
2023-04-07 09:00:00,,0834.1,5.01,0.00,22.3,21.3,00.0,30.7,24.1,08.7,0000.0,0005.91,0002.75,0002.08
2023-04-07 09:01:00,,0834.1,5.00,0.00,22.5,22.4,00.0,30.7,24.4,08.7,0000.0,0005.98,0002.77,0002.07
2023-04-07 09:02:00,,0834.1,4.98,0.00,22.6,22.8,00.0,30.7,24.4,08.6,0000.0,0005.87,0002.79,0002.07
2023-04-07 09:03:00,,0834.1,5.00,0.00,22.5,22.4,00.0,30.8,24.2,08.6,0000.0,0006.03,0002.82,0002.05
2023-04-07 09:04:00,,0834.1,5.01,0.00,22.5,22.0,00.0,30.8,24.0,08.6,0000.0,0006.87,0002.83,0002.03
2023-04-07 09:05:00,,0834.1,5.01,0.00,22.5,21.6,00.0,30.8,23.9,08.6,0000.0,0006.92,0002.80,0002.01
2023-04-07 09:06:00,,0834.1,5.00,0.00,22.4,21.3,00.0,30.8,23.9,08.6,0000.0,0006.91,0002.76,0001.96
2023-04-07 09:07:00,,0834.1,5.00,0.00,22.4,21.0,00.0,30.8,23.8,08.6,0000.0,0006.80,0002.73,0001.95
2023-04-07 09:08:00,,0834.1,4.99,0.00,22.4,20.8,00.0,30.8,23.7,08.7,0000.0,0006.69,0002.75,0001.94
2023-04-07 09:09:00,,0834.1,5.01,0.00,22.3,20.6,00.0,30.8,23.6,08.7,0000.0,0005.64,0002.72,0001.93
2023-04-07 09:10:00,,0834.0,5.01,0.00,22.2,20.4,00.0,30.7,23.5,08.8,0000.0,0005.78,0002.74,0001.93
2023-04-07 09:11:00,,0834.0,4.98,0.00,22.2,20.3,00.0,30.7,23.5,08.7,0000.0,0005.95,0002.76,0001.93
2023-04-07 09:12:00,,0834.0,5.01,0.00,22.2,20.5,00.0,30.7,23.6,08.7,0000.0,0006.11,0002.72,0001.91
2023-04-07 09:13:00,,0834.0,5.01,0.00,22.3,21.6,00.0,30.6,24.1,08.6,0000.0,0007.24,0002.66,0001.88
2023-04-07 09:14:00,,0834.1,5.00,0.00,22.5,22.7,00.0,30.6,24.4,08.6,0000.0,0007.56,0002.63,0001.86
2023-04-07 09:15:00,,0834.1,4.99,0.00,22.5,22.7,00.0,30.7,24.4,08.5,0000.0,0006.90,0002.59,0001.85
2023-04-07 09:16:00,,0834.1,4.99,0.00,22.5,22.4,00.0,30.7,24.2,08.5,0000.0,0006.89,0002.59,0001.86
2023-04-07 09:17:00,,0834.0,5.00,0.00,22.5,22.0,00.0,30.8,24.0,08.6,0000.0,0007.29,0002.64,0001.88
2023-04-07 09:18:00,,0834.0,5.01,0.00,22.5,21.7,00.0,30.8,24.0,08.6,0000.0,0007.34,0002.68,0001.91
2023-04-07 09:19:00,,0834.0,4.99,0.00,22.4,21.4,00.0,30.8,23.9,08.7,0000.0,0007.41,0002.67,0001.92
2023-04-07 09:20:00,,0834.0,5.00,0.00,22.4,21.1,00.0,30.8,23.8,08.7,0000.0,0007.39,0002.70,0001.93
2023-04-07 09:21:00,,0834.0,5.01,0.00,22.4,20.9,00.0,30.8,23.7,08.7,0000.0,0007.32,0002.74,0001.94
2023-04-07 09:22:00,,0834.0,5.00,0.00,22.3,20.6,00.0,30.8,23.6,08.8,0000.0,0007.19,0002.77,0001.95
2023-04-07 09:23:00,,0834.0,4.99,0.00,22.3,20.4,00.0,30.7,23.6,08.8,0000.0,0007.37,0002.82,0001.99
2023-04-07 09:24:00,,0834.0,5.00,0.00,22.2,20.3,00.0,30.7,23.5,08.6,0000.0,0006.34,0002.86,0002.02
2023-04-07 09:25:00,,0834.0,5.01,0.00,22.2,20.2,00.0,30.7,23.5,08.6,0000.0,0005.64,0002.82,0002.03
2023-04-07 09:26:00,,0834.0,5.01,0.00,22.2,21.2,00.0,30.6,24.0,08.6,0000.0,0005.63,0002.83,0002.04
2023-04-07 09:27:00,,0834.0,5.00,0.00,22.4,22.4,00.0,30.6,24.3,08.7,0000.0,0005.76,0002.93,0002.09
2023-04-07 09:28:00,,0834.0,4.99,0.00,22.5,22.9,00.0,30.6,24.4,08.5,0000.0,0006.49,0002.90,0002.10
2023-04-07 09:29:00,,0834.0,4.98,0.00,22.5,22.6,00.0,30.7,24.2,08.4,0000.0,0007.17,0002.92,0002.08
2023-04-07 09:30:00,,0834.0,5.02,0.00,22.5,22.2,00.0,30.7,24.0,08.5,0000.0,0007.25,0002.96,0002.09
2023-04-07 09:31:00,,0834.0,5.01,0.00,22.4,21.8,00.0,30.7,23.9,08.5,0000.0,0007.43,0003.02,0002.09
2023-04-07 09:32:00,,0834.0,4.99,0.00,22.4,21.4,00.0,30.8,23.7,08.5,0000.0,0007.61,0003.00,0002.09
2023-04-07 09:33:00,,0834.0,4.99,0.00,22.3,21.1,00.0,30.7,23.7,08.5,0000.0,0007.60,0002.96,0002.08
2023-04-07 09:34:00,,0834.0,5.01,0.00,22.3,20.8,00.0,30.7,23.6,08.6,0000.0,0008.26,0002.91,0002.06
2023-04-07 09:35:00,,0834.0,4.99,0.00,22.3,20.5,00.0,30.7,23.6,08.5,0000.0,0008.78,0002.93,0002.07
2023-04-07 09:36:00,,0834.0,4.99,0.00,22.2,20.3,00.0,30.7,23.5,08.4,0000.0,0008.88,0002.99,0002.08
2023-04-07 09:37:00,,0834.0,5.00,0.00,22.2,20.3,00.0,30.7,23.5,08.5,0000.0,0009.19,0002.98,0002.08
2023-04-07 09:38:00,,0834.0,5.01,0.00,22.2,21.0,00.0,30.6,23.8,08.4,0000.0,0009.20,0002.93,0002.05
2023-04-07 09:39:00,,0834.0,5.00,0.00,22.4,22.2,00.0,30.6,24.3,08.2,0000.0,0008.66,0002.90,0002.00
2023-04-07 09:40:00,,0834.0,5.00,0.00,22.5,23.0,00.0,30.6,24.5,08.1,0000.0,0008.24,0002.88,0001.99
2023-04-07 09:41:00,,0833.9,4.99,0.00,22.6,22.9,00.0,30.7,24.3,08.0,0000.0,0008.75,0002.79,0001.94
2023-04-07 09:42:00,,0833.9,4.98,0.00,22.5,22.5,00.0,30.8,24.2,08.0,0000.0,0008.63,0002.66,0001.91
2023-04-07 09:43:00,,0833.8,5.02,0.00,22.5,22.1,00.0,30.8,24.1,08.1,0000.0,0008.92,0002.66,0001.89
2023-04-07 09:44:00,,0833.8,4.99,0.00,22.5,21.8,00.0,30.8,24.0,08.1,0000.0,0009.20,0002.65,0001.88
2023-04-07 09:45:00,,0833.8,4.99,0.00,22.5,21.4,00.0,30.8,23.9,08.1,0000.0,0008.37,0002.62,0001.85
2023-04-07 09:46:00,,0833.8,5.00,0.00,22.4,21.1,00.0,30.8,23.9,08.1,0000.0,0007.76,0002.60,0001.81
2023-04-07 09:47:00,,0833.8,5.01,0.00,22.4,20.9,00.0,30.8,23.8,08.1,0000.0,0007.77,0002.60,0001.78
2023-04-07 09:48:00,,0833.7,4.99,0.00,22.4,20.7,00.0,30.8,23.7,08.2,0000.0,0007.59,0002.69,0001.80
2023-04-07 09:49:00,,0833.8,4.99,0.00,22.3,20.6,00.0,30.8,23.7,08.2,0000.0,0007.57,0002.70,0001.82
2023-04-07 09:50:00,,0833.8,5.01,0.00,22.3,20.4,00.0,30.7,23.7,08.3,0000.0,0007.63,0002.76,0001.86
2023-04-07 09:51:00,,0833.8,5.00,0.00,22.3,20.3,00.0,30.7,23.6,08.2,0000.0,0007.66,0002.81,0001.87
2023-04-07 09:52:00,,0833.8,5.01,0.00,22.2,20.3,00.0,30.7,23.5,08.1,0000.0,0006.73,0002.83,0001.90
2023-04-07 09:53:00,,0833.8,5.02,0.00,22.3,21.0,00.0,30.6,23.9,08.1,0000.0,0006.50,0002.86,0001.92
2023-04-07 09:54:00,,0833.8,5.00,0.00,22.4,22.2,00.0,30.6,24.3,08.1,0000.0,0005.68,0002.85,0001.95
2023-04-07 09:55:00,,0833.9,5.00,0.00,22.6,23.0,00.0,30.6,24.5,08.1,0000.0,0005.23,0002.87,0001.98
2023-04-07 09:56:00,,0833.9,4.99,0.00,22.6,22.7,00.0,30.7,24.3,08.1,0000.0,0005.06,0002.92,0002.02
2023-04-07 09:57:00,,0833.9,4.99,0.00,22.5,22.3,00.0,30.8,24.1,08.0,0000.0,0005.48,0002.89,0002.04
2023-04-07 09:58:00,,0833.8,5.01,0.00,22.5,21.9,00.0,30.8,24.0,08.0,0000.0,0005.72,0002.85,0002.04
2023-04-07 09:59:00,,0833.8,5.01,0.00,22.5,21.6,00.0,30.8,23.9,08.0,0000.0,0006.72,0002.78,0002.01
